Погода в Денизли

Турция     37°46′47″N   29°05′48″E
В апреле 2022 года жителям России запретили посещать сайт meteo.paraplan.net по решению Генеральной прокуратуры. Аудитория сайта уменьшилась в 10 раз. Владельцы сайта не видят смысла в поддержке погодного сервера в таких условиях. Сайт будет закрыт в октябре.
темп.,
°C
ветер,
м/с
пор.,
м/с
влажн.,
%
обл.,
%
осадки,
мм/ч
давл.,
гПа
погр.,
м
3 октября, пн
пн300:00+15ссз13735 0.0 101363
03:00+13с23780 0.0 101349
06:00+11с22820 0.0 101337
09:00+14св33590 0.0 1013425
12:00+19ссв23370 0.0 1012699
15:00+23с23220 0.0 10091177
18:00+22ссз24200 0.0 1009221
21:00+15с11322 0.0 101011
4 октября, вт
вт400:00+15ссз223798 0.0 101111
03:00+12ссз12425 0.0 101111
06:00+10с12495 0.0 101213
09:00+15ссв22390 0.0 1013296
12:00+19ссв32330 0.0 1013831
15:00+22с32261 0.0 10121671
18:00+20ссз56320 0.0 1013638
21:00+14ссз22480 0.0 101613
5 октября, ср
ср500:00+12с12580 0.0 101713
03:00+10с12700 0.0 101815
06:00+8св12800 0.0 101919
09:00+12св22610 0.0 1020275
12:00+17ссв22440 0.0 1020691
15:00+20с22333 0.0 10181146
18:00+20сз23322 0.0 1017181
21:00+15сз22400 0.0 101812
6 октября, чт
чт600:00+12с12521 0.0 101912
03:00+10ссв12640 0.0 101918
06:00+9ссв11740 0.0 101920
09:00+13ссв22560 0.1 1019260
12:00+18ссв23430 0.1 1018743
15:00+22с243584 0.1 10151081
18:00+21св333993 0.9 1015303
21:00+16ссз225335 1.0 101615
7 октября, пт
пт700:00+14ссз23531 0.0 101722
03:00+11с12672 0.0 101817
06:00+9ссв12800 0.0 101719
09:00+12ссв226611 0.0 1018251
12:00+16с34490 0.0 1017772
15:00+20св23330 0.0 10141284
18:00+19ссв12353 0.0 1014204
21:00+13ссз124684 0.0 101511